QPF
0.00 0.00 0.00 0.00 0.00 0.00 0.00 0.00 0.00 0.00 0.00 0.00 0.00 0.00 0.00 0.00 0.00 0.00 0.00 0.00 0.00 0.00 0.00 0.00 0.00 0.00 0.00 0.00 0.00 0.00 0.00 0.00 0.00 0.00 0.00 0.00 0.00 0.00 0.00 0.00 0.00 0.00
0.00 0.00 0.00 0.00 0.00 0.00 0.00 0.00 0.00 0.00 0.00 0.00 0.00 0.00 0.00 0.00 0.00 0.00 0.00 0.00 0.00 0.00 0.00 0.00 0.00 0.00 0.00 0.00 0.00 0.00 0.00 0.00 0.00 0.00 0.00 0.00 0.00 0.00 0.00 0.00 0.00 0.00
0.00 0.00 0.00 0.00 0.00 0.00 0.00 0.00 0.00 0.00 0.00 0.00 0.00 0.00 0.00 0.00 0.00 0.00 0.00 0.00 0.00 0.00 0.00 0.00 0.00 0.00 0.00 0.00 0.00 0.00 0.00 0.00 0.00 0.00 0.00 0.00 0.00 0.00 0.00 0.00 0.00 0.00
0.00 0.00 0.00 0.00 0.00 0.00 0.00 0.00 0.00 0.00 0.00 0.00 0.00 0.00 0.00 0.00 0.00 0.00 0.00 0.00 0.00 0.00 0.00 0.00 0.00 0.00 0.00 0.00 0.00 0.00 0.00 0.00 0.00 0.00 0.00 0.00 0.00 0.00 0.00 0.00 0.00 0.00
0.00 0.00 0.00 0.00 0.00 0.00 0.00 0.00 0.00 0.00 0.00 0.00 0.00 0.00 0.00 0.00 0.00 0.00 0.00 0.00 0.00 0.00 0.00 0.00 0.00 0.00 0.00 0.00 0.00 0.00 0.00 0.00 0.00 0.00 0.00 0.00 0.00 0.00 0.00 0.00 0.00 0.00
0.00 0.00 0.00 0.00 0.00 0.00 0.00 0.00 0.00 0.00 0.00 0.00 0.00 0.00 0.00 0.00 0.00 0.00 0.00 0.00 0.00 0.00 0.00 0.00 0.00 0.00 0.00 0.00 0.00 0.00 0.00 0.00 0.00 0.00 0.00 0.00 0.00 0.00 0.00 0.00 0.00 0.00
0.00 0.00 0.00 0.00 0.00 0.00 0.00 0.00 0.00 0.00 0.00 0.00 0.00 0.00 0.00 0.00 0.00 0.00 0.00 0.00 0.00 0.00 0.00 0.00 0.00 0.00 0.00 0.00 0.00 0.00 0.00 0.00 0.00 0.00 0.00 0.00 0.00 0.00 0.00 0.00 0.00 0.00
0.00 0.00 0.00 0.00 0.00 0.00 0.00 0.00 0.00 0.00 0.00 0.00 0.00 0.00 0.00 0.00 0.00 0.00 0.00 0.00 0.00 0.00 0.00 0.00 0.00 0.00 0.00 0.00 0.00 0.00 0.00 0.00 0.00 0.00 0.00 0.00 0.00 0.00 0.00 0.00 0.00 0.00
0.00 0.00 0.00 0.00 0.00 0.00 0.00 0.00 0.00 0.00 0.00 0.00 0.00 0.00 0.00 0.00 0.00 0.00 0.00 0.00 0.00 0.00 0.00 0.00 0.00 0.00 0.00 0.00 0.00 0.00 0.00 0.00 0.00 0.00 0.00 0.00 0.00 0.00 0.00 0.00 0.00 0.00
0.00 0.00 0.00 0.00 0.00 0.00 0.00 0.00 0.00 0.00 0.00 0.00 0.00 0.00 0.00 0.00 0.00 0.00 0.00 0.00 0.00 0.00 0.00 0.00 0.00 0.00 0.00 0.00 0.00 0.00 0.00 0.00 0.00 0.00 0.00 0.00 0.00 0.00 0.00 0.00 0.00 0.00
0.03 0.00 0.00 0.00 0.00 0.00 0.00 0.00 0.00 0.00 0.00 0.00 0.00 0.00 0.00 0.00 0.00 0.00 0.00 0.00 0.00 0.00 0.00 0.00 0.00 0.00 0.00 0.00 0.00 0.00 0.00 0.00 0.00 0.00 0.00 0.00 0.00 0.00 0.00 0.00 0.00 0.00
0.00 0.00 0.01 0.00 0.00 0.00 0.00 0.00 0.00 0.00 0.00 0.00 0.00 0.00 0.00 0.00 0.00 0.00 0.00 0.00 0.00 0.00 0.00 0.00 0.00 0.00 0.00 0.00 0.00 0.00 0.00 0.00 0.00 0.00 0.00 0.00 0.00 0.00 0.00 0.00 0.00 0.00
0.00 0.00 0.00 0.00 0.00 0.00 0.00 0.00 0.00 0.00 0.00 0.00 0.00 0.00 0.00 0.00 0.00 0.00 0.00 0.00 0.00 0.00 0.00 0.00 0.00 0.00 0.00 0.00 0.00 0.00 0.00 0.00 0.00 0.00 0.00 0.00 0.00 0.00 0.00 0.00 0.00 0.00
0.00 0.00 0.00 0.00 0.00 0.00 0.00 0.00 0.00 0.00 0.00 0.00 0.00 0.00 0.00 0.00 0.00 0.00 0.00 0.00 0.00 0.00 0.00 0.00 0.00 0.00 0.00 0.00 0.00 0.00 0.00 0.00 0.00 0.00 0.00 0.00 0.00 0.00 0.00 0.00 0.00 0.00
0.00 0.00 0.00 0.00 0.00 0.00 0.00 0.00 0.00 0.00 0.00 0.00 0.00 0.00 0.00 0.00 0.00 0.00 0.00 0.00 0.00 0.00 0.00 0.00 0.00 0.00 0.00 0.00 0.00 0.00 0.00 0.00 0.00 0.00 0.00 0.00 0.00 0.00 0.00 0.00 0.00 0.00
0.00 0.00 0.00 0.00 0.00 0.00 0.00 0.00 0.00 0.00 0.00 0.00 0.00 0.00 0.00 0.00 0.00 0.00 0.00 0.00 0.00 0.00 0.00 0.00 0.00 0.00 0.00 0.00 0.00 0.00 0.00 0.00 0.00 0.00 0.00 0.00 0.00 0.00 0.00 0.00 0.00 0.00
0.00 0.00 0.00 0.00 0.00 0.00 0.00 0.00 0.00 0.00 0.00 0.00 0.00 0.00 0.00 0.00 0.00 0.00 0.00 0.00 0.00 0.00 0.00 0.00 0.00 0.00 0.00 0.00 0.00 0.00 0.00 0.00 0.00 0.00 0.00 0.00 0.00 0.00 0.00 0.00 0.00 0.00
0.00 0.00 0.00 0.00 0.00 0.00 0.00 0.00 0.00 0.00 0.00 0.00 0.00 0.00 0.00 0.00 0.00 0.00 0.00 0.00 0.00 0.00 0.00 0.00 0.00 0.00 0.00 0.00 0.00 0.00 0.00 0.00 0.00 0.00 0.00 0.00 0.00 0.00 0.00 0.00 0.00 0.00
0.00 0.00 0.00 0.00 0.00 0.00 0.00 0.00 0.00 0.00 0.00 0.00 0.00 0.00 0.00 0.00 0.00 0.00 0.00 0.00 0.00 0.00 0.00 0.00 0.00 0.00 0.00 0.00 0.00 0.00 0.00 0.00 0.00 0.00 0.00 0.00 0.00 0.00 0.00 0.00 0.00 0.00
0.00 0.00 0.00 0.00 0.00 0.00 0.00 0.00 0.00 0.00 0.00 0.00 0.00 0.00 0.00 0.00 0.00 0.00 0.00 0.00 0.00 0.00 0.00 0.00 0.00 0.00 0.00 0.00 0.00 0.00 0.00 0.00 0.00 0.00 0.00 0.00 0.00 0.00 0.00 0.00 0.00 0.00
0.00 0.00 0.00 0.00 0.00 0.00 0.00 0.00 0.00 0.00 0.00 0.00 0.00 0.00 0.00 0.00 0.00 0.00 0.00 0.00 0.00 0.00 0.00 0.00 0.00 0.00 0.00 0.00 0.00 0.00 0.00 0.00 0.00 0.00 0.00 0.00 0.00 0.00 0.00 0.00 0.00 0.00
0.06 0.03 0.00 0.00 0.00 0.00 0.00 0.00 0.00 0.00 0.00 0.00 0.00 0.00 0.00 0.00 0.00 0.00 0.00 0.00 0.00 0.00 0.00 0.00 0.00 0.00 0.00 0.00 0.00 0.00 0.00 0.00 0.00 0.00 0.00 0.00 0.00 0.00 0.00 0.00 0.00 0.00
0.07 0.02 0.00 0.05 0.01 0.00 0.03 0.00 0.01 0.00 0.00 0.00 0.00 0.00 0.00 0.00 0.00 0.00 0.00 0.00 0.00 0.00 0.00 0.00 0.00 0.00 0.00 0.00 0.00 0.00 0.00 0.00 0.00 0.00 0.00 0.00 0.00 0.00 0.00 0.00 0.00 0.00
0.00 0.15 0.08 0.03 0.02 0.02 0.03 0.02 0.01 0.00 0.00 0.00 0.00 0.00 0.00 0.00 0.00 0.00 0.00 0.00 0.00 0.00 0.00 0.00 0.00 0.00 0.00 0.00 0.00 0.00 0.00 0.00 0.00 0.00 0.00 0.00 0.00 0.00 0.00 0.00 0.00 0.00
0.00 0.02 0.12 0.03 0.02 0.01 0.06 0.10 0.04 0.00 0.00 0.00 0.00 0.00 0.00 0.00 0.00 0.00 0.00 0.00 0.00 0.00 0.00 0.00 0.00 0.00 0.00 0.00 0.00 0.00 0.00 0.00 0.00 0.00 0.00 0.00 0.00 0.00 0.00 0.00 0.00 0.00
0.02 0.05 0.03 0.07 0.06 0.04 0.02 0.01 0.01 0.01 0.00 0.00 0.00 0.00 0.01 0.02 0.00 0.00 0.00 0.00 0.00 0.00 0.00 0.00 0.00 0.00 0.00 0.00 0.00 0.00 0.00 0.00 0.00 0.00 0.00 0.00 0.00 0.00 0.00 0.00 0.00 0.00
MSLP
1009.07 1009.11 1009.35 1009.67 1010.03 1010.31 1010.55 1010.95 1011.19 1011.51 1011.75 1011.95 1012.19 1012.23 1012.31 1012.43 1012.79 1012.99 1013.19 1013.55 1013.75 1013.99 1014.23 1014.47 1014.67 1014.95 1015.11 1015.27 1015.43 1015.71 1016.07 1016.31 1016.51 1016.67 1016.87 1017.03 1017.31 1017.55 1017.83 1017.99 1018.11 1018.23
1008.63 1008.63 1008.75 1009.11 1009.59 1010.03 1010.23 1010.19 1010.51 1010.87 1011.15 1011.35 1011.47 1011.75 1011.95 1012.23 1012.39 1012.59 1012.87 1013.19 1013.43 1013.59 1013.79 1014.11 1014.35 1014.59 1014.83 1015.07 1015.19 1015.47 1015.79 1016.03 1016.31 1016.27 1016.63 1016.79 1016.99 1017.19 1017.39 1017.55 1017.71 1017.83
1008.15 1008.27 1008.47 1008.87 1009.23 1009.55 1009.71 1009.71 1009.95 1010.31 1010.59 1010.75 1011.11 1011.47 1011.71 1011.79 1012.07 1012.23 1012.47 1012.71 1013.03 1013.23 1013.43 1013.67 1013.99 1014.23 1014.43 1014.75 1014.95 1015.15 1015.43 1015.71 1015.99 1016.03 1016.27 1016.51 1016.63 1016.87 1016.99 1017.19 1017.39 1017.59
1007.47 1007.59 1007.91 1008.23 1008.59 1009.03 1009.35 1009.71 1009.83 1009.99 1010.23 1010.67 1010.83 1010.83 1011.15 1011.43 1011.67 1011.95 1012.15 1012.35 1012.59 1012.83 1013.03 1013.27 1013.55 1013.87 1014.07 1014.35 1014.67 1014.91 1015.03 1015.27 1015.39 1015.67 1015.99 1016.19 1016.35 1016.47 1016.75 1016.91 1017.11 1017.35
1006.79 1007.11 1007.39 1007.83 1008.23 1008.63 1009.07 1009.47 1009.63 1009.67 1009.79 1009.83 1010.15 1010.59 1010.91 1011.11 1011.39 1011.63 1011.83 1012.03 1012.19 1012.47 1012.67 1012.91 1013.11 1013.43 1013.71 1014.03 1014.31 1014.71 1014.87 1015.07 1015.19 1015.43 1015.71 1015.99 1016.07 1016.23 1016.39 1016.63 1016.87 1017.11
1006.23 1006.43 1006.79 1007.31 1007.79 1008.31 1008.75 1008.99 1009.15 1009.35 1009.43 1009.67 1009.83 1009.95 1010.27 1010.59 1010.99 1011.19 1011.39 1011.67 1011.87 1012.11 1012.35 1012.51 1012.79 1012.99 1013.27 1013.63 1013.99 1014.27 1014.55 1014.79 1014.91 1015.11 1015.43 1015.63 1015.79 1015.83 1015.99 1016.23 1016.47 1016.71
1006.07 1006.31 1006.67 1006.95 1007.43 1007.87 1008.39 1008.67 1008.83 1008.95 1009.03 1008.99 1009.27 1009.71 1009.83 1010.31 1010.59 1010.75 1010.95 1011.23 1011.51 1011.75 1011.95 1012.15 1012.39 1012.63 1012.87 1013.23 1013.55 1013.95 1014.15 1014.35 1014.59 1014.79 1015.03 1015.27 1015.43 1015.63 1015.63 1015.83 1015.99 1016.23
1005.71 1006.03 1006.35 1006.63 1007.03 1007.43 1007.83 1008.15 1008.43 1008.59 1008.63 1008.83 1009.07 1009.11 1009.31 1009.67 1010.03 1010.31 1010.63 1010.91 1011.23 1011.39 1011.55 1011.75 1011.91 1012.15 1012.47 1012.79 1013.19 1013.55 1013.83 1013.99 1014.19 1014.43 1014.67 1014.91 1015.07 1015.27 1015.35 1015.39 1015.59 1015.83
1005.47 1005.79 1006.07 1006.47 1006.87 1007.07 1007.39 1007.67 1007.87 1008.07 1008.19 1008.47 1008.55 1008.71 1008.87 1009.07 1009.47 1009.91 1010.27 1010.55 1010.87 1011.03 1011.23 1011.39 1011.51 1011.75 1011.99 1012.31 1012.63 1012.99 1013.35 1013.59 1013.71 1013.95 1014.23 1014.51 1014.71 1014.75 1014.87 1014.99 1015.31 1015.43
1005.31 1005.55 1005.87 1006.23 1006.59 1006.67 1006.91 1007.07 1007.23 1007.47 1007.63 1007.87 1007.99 1008.23 1008.55 1008.67 1008.95 1009.47 1009.87 1010.19 1010.47 1010.71 1010.83 1010.91 1011.11 1011.27 1011.55 1011.79 1012.07 1012.43 1012.83 1013.11 1013.31 1013.55 1013.75 1013.95 1014.11 1014.31 1014.47 1014.63 1014.79 1015.11
1004.99 1005.23 1005.59 1005.79 1005.99 1006.19 1006.43 1006.59 1006.79 1006.99 1007.19 1007.35 1007.55 1007.87 1008.03 1008.31 1008.67 1008.95 1009.43 1009.71 1010.03 1010.15 1010.31 1010.43 1010.55 1010.75 1011.11 1011.35 1011.55 1011.83 1012.23 1012.59 1012.91 1013.15 1013.35 1013.51 1013.63 1013.75 1013.91 1014.07 1014.27 1014.47
1004.55 1004.75 1004.95 1005.11 1005.31 1005.63 1005.83 1006.03 1006.23 1006.43 1006.63 1006.83 1006.99 1007.31 1007.55 1007.79 1008.11 1008.47 1008.71 1009.03 1009.27 1009.59 1009.83 1009.99 1010.07 1010.27 1010.51 1010.83 1011.11 1011.43 1011.79 1012.11 1012.39 1012.71 1012.95 1013.11 1013.27 1013.35 1013.43 1013.59 1013.79 1014.07
1004.15 1004.31 1004.47 1004.67 1004.83 1004.99 1005.19 1005.51 1005.79 1005.95 1006.23 1006.47 1006.51 1006.75 1007.07 1007.35 1007.59 1007.95 1008.11 1008.39 1008.71 1009.07 1009.39 1009.47 1009.63 1009.79 1009.99 1010.31 1010.63 1010.95 1011.27 1011.71 1012.03 1012.27 1012.59 1012.79 1012.83 1012.95 1013.07 1013.23 1013.43 1013.71
1003.51 1003.59 1003.91 1004.15 1004.19 1004.31 1004.55 1004.71 1004.95 1005.35 1005.75 1005.99 1006.23 1006.47 1006.63 1006.87 1007.15 1007.39 1007.55 1007.87 1008.19 1008.55 1008.79 1009.03 1009.27 1009.39 1009.47 1009.71 1009.99 1010.31 1010.75 1011.15 1011.51 1011.87 1012.19 1012.39 1012.51 1012.63 1012.75 1012.91 1013.11 1013.35
1003.19 1003.35 1003.51 1003.67 1003.83 1003.95 1004.03 1004.11 1004.31 1004.63 1005.07 1005.47 1005.79 1006.03 1006.07 1006.23 1006.43 1006.75 1007.27 1007.71 1007.87 1008.11 1008.35 1008.59 1008.79 1008.79 1008.75 1008.95 1009.35 1009.79 1010.11 1010.63 1010.99 1011.35 1011.67 1012.03 1012.23 1012.39 1012.51 1012.67 1012.91 1013.07
1002.91 1002.95 1003.11 1003.31 1003.55 1003.67 1003.71 1003.67 1003.75 1003.99 1004.43 1004.99 1005.39 1005.51 1005.63 1005.79 1006.07 1006.39 1006.75 1007.11 1007.43 1007.63 1007.87 1008.15 1008.19 1008.03 1007.95 1008.19 1008.59 1009.07 1009.59 1010.03 1010.51 1010.87 1011.19 1011.51 1011.91 1012.19 1012.35 1012.43 1012.59 1012.79
1002.55 1002.59 1002.63 1002.79 1002.83 1003.11 1003.31 1003.39 1003.35 1003.43 1003.87 1004.39 1004.83 1005.07 1005.27 1005.43 1005.75 1006.11 1006.35 1006.51 1006.75 1007.03 1007.39 1007.51 1007.47 1007.27 1007.35 1007.79 1008.15 1008.47 1008.95 1009.51 1009.99 1010.43 1010.75 1011.07 1011.39 1011.71 1012.03 1012.27 1012.43 1012.51
1001.83 1001.95 1002.15 1002.15 1002.23 1002.43 1002.75 1003.03 1003.07 1003.11 1003.39 1003.83 1004.35 1004.75 1004.87 1005.03 1005.35 1005.51 1005.71 1005.95 1006.19 1006.43 1006.71 1006.83 1006.79 1006.55 1006.87 1007.35 1007.75 1008.03 1008.35 1008.83 1009.39 1009.91 1010.39 1010.67 1010.91 1011.19 1011.55 1011.91 1012.15 1012.39
1001.15 1001.39 1001.51 1001.63 1001.71 1001.79 1002.07 1002.43 1002.71 1002.83 1002.99 1003.35 1003.79 1004.03 1004.35 1004.67 1004.75 1004.99 1005.23 1005.35 1005.67 1005.99 1006.15 1006.15 1006.11 1006.03 1006.47 1006.83 1007.23 1007.59 1007.91 1008.27 1008.79 1009.23 1009.87 1010.23 1010.47 1010.75 1011.15 1011.47 1011.79 1012.11
1000.67 1000.79 1000.95 1001.03 1001.07 1001.31 1001.63 1001.95 1002.23 1002.39 1002.47 1002.67 1003.03 1003.43 1003.87 1004.15 1004.31 1004.47 1004.59 1004.91 1005.15 1005.35 1005.43 1005.43 1005.51 1005.59 1005.95 1006.27 1006.67 1007.11 1007.51 1007.79 1008.23 1008.75 1009.27 1009.67 1009.95 1010.27 1010.63 1010.99 1011.31 1011.67
1000.35 1000.15 1000.31 1000.39 1000.51 1000.79 1001.11 1001.39 1001.63 1001.83 1002.07 1002.31 1002.59 1002.95 1003.27 1003.51 1003.75 1004.03 1004.11 1004.27 1004.51 1004.67 1004.91 1005.03 1004.95 1004.99 1005.39 1005.75 1006.23 1006.67 1007.11 1007.39 1007.83 1008.35 1008.79 1009.19 1009.47 1009.79 1010.11 1010.47 1010.83 1011.19
1001.27 1001.31 1000.63 1000.03 1000.07 1000.31 1000.55 1000.79 1000.99 1001.23 1001.59 1001.79 1002.11 1002.35 1002.47 1002.71 1002.99 1003.19 1003.51 1003.71 1003.79 1004.07 1004.47 1004.67 1004.43 1004.67 1004.99 1005.35 1005.83 1006.39 1006.95 1007.19 1007.43 1007.95 1008.35 1008.71 1009.07 1009.35 1009.71 1010.03 1010.39 1010.83
1000.39 1000.67 1001.11 1001.19 1000.67 1000.19 1000.03 1000.15 1000.35 1000.71 1000.91 1001.11 1001.67 1001.79 1002.03 1002.23 1002.39 1002.63 1002.75 1003.07 1003.35 1003.63 1003.95 1004.03 1003.99 1004.27 1004.55 1004.91 1005.43 1006.03 1006.75 1006.71 1007.07 1007.51 1007.95 1008.35 1008.55 1008.91 1009.27 1009.63 1009.99 1010.43
1000.03 1000.47 1000.63 1000.39 1000.39 1000.55 1000.27 999.79 999.71 999.87 1000.15 1000.39 1000.87 1001.23 1001.47 1001.51 1001.71 1002.07 1002.23 1002.39 1002.67 1002.91 1003.03 1003.35 1003.31 1003.67 1004.11 1004.55 1005.03 1005.59 1005.75 1006.03 1006.51 1007.07 1007.55 1007.99 1008.35 1008.59 1008.83 1009.15 1009.51 1009.91
999.39 999.55 1000.31 1000.55 1000.19 1000.15 1000.19 1000.51 999.99 999.59 999.59 999.75 1000.03 1000.35 1000.59 1000.79 1001.19 1001.47 1001.71 1001.83 1001.91 1002.11 1002.35 1002.71 1002.83 1003.51 1004.23 1004.27 1004.71 1005.11 1005.35 1005.51 1006.11 1006.71 1007.31 1007.67 1007.99 1008.35 1008.51 1008.79 1009.23 1009.59
998.63 998.79 998.99 999.47 999.47 999.23 999.19 999.59 999.67 999.39 999.27 999.31 999.43 999.63 999.91 1000.27 1000.67 1000.95 1001.35 1001.55 1001.63 1001.83 1002.07 1002.27 1002.67 1003.35 1004.15 1004.15 1004.27 1004.71 1004.79 1004.95 1005.55 1006.27 1006.75 1007.11 1007.51 1007.87 1008.31 1008.63 1008.87 1009.31
Thickness
5728 5730 5732 5732 5732 5732 5732 5732 5732 5733 5734 5734 5734 5733 5732 5732 5731 5728 5727 5725 5723 5721 5720 5718 5715 5713 5711 5709 5707 5703 5699 5695 5693 5691 5688 5685 5683 5680 5677 5675 5673 5671
5727 5729 5730 5730 5730 5730 5732 5734 5734 5734 5734 5735 5734 5733 5732 5731 5730 5729 5727 5725 5723 5722 5721 5719 5716 5713 5711 5709 5708 5704 5700 5696 5693 5691 5689 5686 5684 5681 5678 5676 5674 5672
5727 5728 5729 5729 5730 5730 5731 5733 5734 5734 5733 5734 5733 5732 5731 5730 5730 5728 5727 5725 5723 5723 5722 5719 5717 5714 5711 5709 5708 5704 5701 5697 5694 5692 5689 5686 5685 5682 5679 5677 5674 5672
5727 5729 5729 5730 5731 5731 5729 5729 5730 5732 5733 5732 5732 5731 5731 5730 5729 5727 5727 5725 5724 5723 5722 5720 5717 5715 5712 5710 5708 5705 5702 5698 5695 5693 5690 5687 5685 5683 5680 5677 5674 5672
5729 5729 5730 5730 5730 5728 5727 5726 5727 5730 5731 5732 5731 5731 5730 5729 5728 5727 5726 5725 5724 5723 5722 5720 5718 5715 5713 5711 5708 5704 5702 5699 5696 5693 5689 5687 5686 5684 5681 5678 5675 5673
5727 5728 5729 5728 5727 5726 5724 5724 5726 5728 5729 5731 5730 5730 5730 5728 5727 5726 5726 5725 5724 5722 5722 5720 5717 5715 5714 5711 5708 5705 5702 5699 5696 5694 5690 5687 5686 5684 5682 5679 5676 5674
5723 5724 5725 5725 5725 5723 5722 5722 5723 5725 5727 5729 5729 5729 5729 5727 5726 5726 5725 5724 5723 5722 5721 5720 5718 5716 5714 5712 5709 5705 5703 5700 5697 5694 5691 5689 5686 5684 5682 5681 5678 5675
5720 5720 5721 5722 5721 5720 5720 5720 5721 5722 5725 5726 5727 5729 5729 5727 5726 5725 5724 5723 5721 5721 5721 5720 5718 5716 5714 5713 5710 5706 5703 5701 5698 5695 5692 5689 5686 5684 5683 5682 5679 5676
5715 5716 5717 5717 5717 5718 5718 5718 5720 5722 5724 5724 5726 5728 5728 5727 5726 5724 5723 5722 5720 5718 5719 5719 5719 5717 5715 5713 5711 5707 5704 5702 5699 5696 5693 5690 5688 5685 5684 5682 5680 5676
5710 5712 5713 5713 5714 5716 5717 5718 5720 5721 5722 5723 5725 5726 5725 5726 5726 5723 5721 5720 5718 5717 5718 5719 5718 5717 5715 5714 5712 5709 5705 5703 5700 5696 5694 5691 5689 5687 5684 5683 5680 5677
5707 5709 5710 5712 5714 5715 5717 5718 5719 5720 5721 5723 5724 5724 5723 5724 5723 5722 5720 5720 5718 5718 5717 5718 5719 5717 5715 5714 5712 5710 5707 5703 5700 5697 5694 5692 5690 5688 5686 5684 5682 5679
5704 5706 5709 5712 5714 5716 5717 5718 5719 5720 5721 5722 5723 5722 5722 5723 5722 5721 5721 5720 5719 5718 5716 5717 5718 5718 5716 5714 5713 5710 5707 5703 5701 5697 5694 5692 5690 5689 5687 5685 5683 5679
5702 5705 5708 5710 5713 5716 5717 5719 5720 5720 5720 5721 5722 5722 5721 5721 5721 5721 5721 5721 5719 5717 5716 5717 5717 5717 5717 5715 5713 5711 5708 5704 5701 5698 5695 5692 5690 5689 5687 5685 5683 5680
5701 5704 5707 5708 5712 5714 5715 5717 5719 5719 5718 5719 5719 5720 5720 5721 5720 5720 5720 5719 5717 5716 5715 5716 5715 5716 5717 5716 5714 5712 5709 5705 5702 5699 5694 5692 5690 5688 5686 5685 5682 5680
5698 5700 5703 5705 5708 5711 5713 5716 5718 5718 5718 5717 5716 5717 5718 5720 5721 5719 5717 5715 5714 5715 5715 5714 5714 5716 5719 5719 5716 5713 5710 5706 5703 5699 5696 5691 5689 5687 5685 5683 5682 5679
5692 5696 5700 5702 5704 5707 5709 5713 5716 5717 5716 5715 5714 5716 5716 5717 5717 5716 5715 5714 5714 5714 5713 5713 5715 5718 5721 5720 5717 5715 5711 5707 5703 5700 5696 5692 5688 5686 5684 5682 5680 5678
5689 5693 5696 5700 5703 5705 5706 5708 5712 5715 5715 5713 5712 5712 5713 5714 5714 5713 5714 5715 5714 5714 5713 5713 5716 5720 5721 5718 5717 5715 5712 5708 5703 5700 5696 5692 5689 5686 5683 5680 5678 5676
5688 5691 5694 5698 5702 5704 5704 5705 5708 5710 5712 5711 5710 5710 5710 5711 5712 5712 5713 5715 5714 5714 5713 5714 5718 5721 5720 5717 5716 5715 5712 5709 5704 5700 5696 5692 5689 5687 5683 5680 5676 5674
5686 5689 5691 5696 5700 5702 5702 5703 5703 5706 5708 5709 5709 5709 5708 5709 5710 5711 5713 5713 5712 5712 5714 5716 5719 5720 5719 5717 5715 5714 5711 5708 5705 5700 5696 5692 5690 5687 5684 5680 5676 5672
5683 5686 5689 5693 5698 5699 5699 5699 5700 5702 5705 5707 5708 5708 5706 5707 5708 5710 5711 5711 5711 5712 5714 5716 5719 5720 5718 5717 5716 5713 5710 5708 5704 5700 5696 5692 5690 5687 5685 5681 5677 5673
5676 5681 5687 5692 5695 5696 5696 5697 5699 5701 5702 5704 5705 5705 5705 5707 5708 5709 5710 5710 5711 5712 5712 5714 5718 5719 5717 5716 5715 5712 5708 5706 5703 5699 5695 5692 5690 5687 5685 5682 5678 5673
5667 5670 5676 5684 5690 5693 5695 5695 5697 5698 5700 5701 5702 5704 5705 5706 5707 5708 5708 5709 5710 5710 5709 5711 5716 5717 5715 5715 5713 5709 5705 5703 5701 5697 5694 5692 5690 5687 5685 5682 5678 5673
5663 5664 5667 5673 5679 5684 5690 5695 5697 5697 5698 5699 5699 5700 5702 5703 5704 5706 5707 5708 5708 5708 5707 5710 5714 5715 5713 5713 5711 5706 5703 5701 5700 5696 5693 5691 5688 5686 5684 5682 5678 5674
5659 5660 5662 5666 5670 5675 5681 5688 5694 5695 5697 5699 5699 5699 5700 5703 5704 5704 5705 5707 5707 5707 5708 5711 5713 5713 5711 5710 5708 5704 5703 5701 5698 5695 5691 5688 5686 5684 5683 5681 5677 5673
5656 5658 5659 5661 5665 5671 5675 5678 5685 5692 5695 5696 5698 5698 5699 5701 5701 5701 5701 5704 5706 5707 5708 5708 5710 5709 5705 5705 5705 5702 5701 5701 5696 5692 5689 5686 5684 5682 5680 5679 5676 5672
5653 5656 5659 5661 5664 5671 5674 5673 5676 5684 5690 5693 5695 5696 5696 5695 5694 5695 5696 5698 5700 5703 5704 5704 5705 5704 5700 5701 5703 5700 5700 5699 5695 5691 5689 5686 5683 5681 5679 5676 5674 5669